Regional Weather Roundup
Issued by NWS

Home | Current Version | Previous Version | Text Only | Print | Product List | Glossary On
Versions: 1 2 3 4 5 6 7 8 9 10 11 12 13 14 15 16 17 18 19 20 21 22 23 24 25 26 27 28 29 30 31 32 33 34 35 36 37 38 39 40 41 42 43 44 45 46 47 48
000
ASUS42 KTBW 150210
RWRFL
FLORIDA REGIONAL WEATHER ROUNDUP
NATIONAL WEATHER SERVICE TAMPA BAY RUSKIN FL
1000 PM EDT SUN SEP 14 2014

NOTE: "FAIR" INDICATES FEW OR NO CLOUDS BELOW 12,000 FEET WITH NO
SIGNIFICANT WEATHER AND/OR OBSTRUCTIONS TO VISIBILITY.


FLZ001>010-012>015-112-114-115-150300-
PANHANDLE FLORIDA

CITY           SKY/WX    TMP DP  RH WIND       PRES   REMARKS
PENSACOLA      MOCLDY    80  75  84 SE8       30.10R
PENSACOLA NAS  MOCLDY    83  74  74 SE10      30.09R
MILTON NAS     MOCLDY    77  74  90 CALM      30.11R
CRESTVIEW      PTCLDY    78  72  81 CALM      30.12R
DUKE FIELD     FAIR      76  76 100 E3        30.11R
VALPARAISO     PTCLDY    79  74  84 SE3       30.10S
MARY ESTHER    MOCLDY    81  73  78 NE2       30.09R
PANAMA CITY    FAIR      78  74  87 CALM      30.11R
TYNDALL AFB    MOCLDY    78  77  99 NE5       30.12R
APALACHICOLA   MOCLDY    85  74  69 S8        30.11R

STATION/POSITION SKY/WX   TEMP    WIND        PRES    WAVE   SWELL
                          AIR SEA DIR/SP/G            HT/PER HT/PER
                          (F)     (DEG/KT/KT) (MB)    (FT/S) (FT/S)
30.1N   87.6W              85 87  120/ 10/ 12 1018.7R   3/ 6   2/ 6
29.2N   88.2W              84 86  110/ 12/ 14 1018.5R   4/ 6   3/ 6
28.8N   86.0W              84 87  120/ 12/ 14 1018.4    3/ 6   2/ 6
PANAMA CITY BEAC           80 87   50/  5/  6 1019.4R
CAPE SAN BLAS    NOT AVBL
TOWER C                    83     140/ 13/ 14 1019.6R
28.5N   84.5W              84 86  170/ 16/ 17 1019.1R   3/ 6   2/ 9

$$
FLZ011-016>038-118-127-128-134-139-239-150300-
NORTH FLORIDA

CITY           SKY/WX    TMP DP  RH WIND       PRES   REMARKS
MARIANNA       RAIN      77  74  90 E6        30.12R
TALLAHASSEE    MOCLDY    81  74  79 CALM      30.12R
PERRY          MOCLDY    79  72  78 CALM      30.13S
CROSS CITY       N/A    N/A N/A N/A MISG      30.13R
LAKE CITY      FAIR      77  73  88 E6        30.15R
GAINESVILLE    MOCLDY    78  73  84 E6        30.15R
MAYPORT NAS    PTCLDY    82  76  81 SE9       30.15R
JACKSONVILLE   MOCLDY    79  76  90 SE5       30.14R
JAX NAS        MOCLDY    84  75  74 SE8       30.15R
JAX CRAIG      PTCLDY    81  75  82 SE7       30.15R
JAX CECIL      PTCLDY    77  75  94 CALM      30.15S
FERNANDINA BEA FAIR      82  73  74 SE8       30.14R
ST AUGUSTINE   CLEAR     81  74  79 SE7       30.16R

STATION/POSITION SKY/WX   TEMP    WIND        PRES    WAVE   SWELL
                          AIR SEA DIR/SP/G            HT/PER HT/PER
                          (F)     (DEG/KT/KT) (MB)    (FT/S) (FT/S)
SHELL POINT                85     170/  8/ 11   N/A
KEATON BEACH               84     210/  9/ 11 1020.3R
CEDAR KEY                  83     210/ 10/ 12 1020.2R
FERNANDINA                 82 87  150/  5/  9 1020.3R
30.7N   81.3W                 84                N/A     2/ 3
MAYPORT                    82 86  150/  6/  8   N/A
31.4N   80.9W              83 84  130/ 10/ 12 1021.0R   2/ 3
ST AUGUSTINE               82     160/ 14/ 16 1021.8R

$$
FLZ040-043>046-052-053-057-058-063-144-150300-
INTERIOR CENTRAL FLORIDA

CITY           SKY/WX    TMP DP  RH WIND       PRES   REMARKS
OCALA          PTCLDY    79  72  78 S5        30.15R
THE VILLAGES     N/A     79  72  78 MISG      30.06R HAZE
LEESBURG       LGT RAIN  78  73  84 SE7       30.17R
SANFORD        MOCLDY    78  71  79 SW7       30.15R
ORLANDO EXEC   CLOUDY    76  73  91 SW5       30.16R
ORLANDO INTL   LGT RAIN  75  74  96 CALM      30.16R
KISSIMMEE      MOCLDY    79  73  83 CALM      30.17R
WINTER HAVEN   CLOUDY    78  74  87 SE6       30.17R
LAKELAND       MOCLDY    79  72  78 CALM      30.15R
BARTOW         FAIR      75  73  94 E3        30.17R
OKEECHOBEE       N/A     73  72  94 MISG      30.16

$$
FLZ041-047-054-059-064-141-147-150300-
EAST CENTRAL FLORIDA

CITY           SKY/WX    TMP DP  RH WIND       PRES   REMARKS
DAYTONA BEACH  PTCLDY    79  72  79 S5        30.16R
DELAND         PTCLDY    77  72  83 S7        30.17R
JFK SPACE CTR  MOCLDY    76  73  89 SE3       30.16R
CAPE CANAVERAL MOCLDY    78  72  81 S2        30.15S
PATRICK AFB    MOCLDY    77  74  91 S3        30.15S
MELBOURNE      MOCLDY    78  72  81 E3        30.15R
VERO BEACH     MOCLDY    73  69  87 CALM      30.16R
FT PIERCE      MOCLDY    73  70  90 NW5       30.15R
STUART         PTCLDY    72  70  94 NW3       30.16R

STATION/POSITION SKY/WX   TEMP    WIND        PRES    WAVE   SWELL
                          AIR SEA DIR/SP/G            HT/PER HT/PER
                          (F)     (DEG/KT/KT) (MB)    (FT/S) (FT/S)
28.5N   80.2W              80 84  220/ 12/ 14 1021.3R
28.9N   78.5W              84 85  150/  8/ 10 1021.6R   2/ 4   2/ 4
TRIDENT PIER               79 86  200/  2/  4 1020.7R
28.4N   80.5W                 84                N/A     2/ 3
27.6N   80.2W                 83                N/A     2/ 3

$$
FLZ050-056-061-142-242-148-248-149-249-151-251-155-255-
160-260-150300-
WEST CENTRAL FLORIDA

CITY           SKY/WX    TMP DP  RH WIND       PRES   REMARKS
CRYSTAL RIVER  MOCLDY    79  72  78 CALM      30.14R
INVERNESS      CLOUDY    75  64  69 CALM      30.15S
BROOKSVILLE    CLOUDY    76  73  91 CALM      30.16R
ZEPHYRHILLS    CLOUDY    73  72  94 CALM      30.17R
CLEARWATER     CLOUDY    78  75  90 SE5       30.13R
TAMPA INTL     MOCLDY    79  74  84 SE3       30.14R
TAMPA EXEC     CLOUDY    77  73  88 CALM      30.15S
PLANT CITY     MOCLDY    79  77  94 CALM      30.17S
MACDILL AFB    PTCLDY    80  77  92 S3        30.14R
ST PETERSBURG  PTCLDY    81  74  79 CALM      30.12R
SARASOTA       PTCLDY    78  74  87 E5        30.12R
VENICE           N/A    N/A N/A N/A MISG        N/A

STATION/POSITION SKY/WX   TEMP    WIND        PRES    WAVE   SWELL
                          AIR SEA DIR/SP/G            HT/PER HT/PER
                          (F)     (DEG/KT/KT) (MB)    (FT/S) (FT/S)
CEDAR KEY                  83     210/ 10/ 12 1020.2R
28.5N   84.5W              84 86  170/ 16/ 17 1019.1R   3/ 6   2/ 9
27.3N   84.3W                 86                N/A     5/ 6
CLEARWATER BEACH NOT AVBL
MIDDLE TAMPA BAY           82     170/  5/  6 1020.6R
VENICE                     80 87  100/  4/  5 1020.2R

$$
FLZ066-069-070-075>078-162-262-165-265-150300-
SOUTHWEST FLORIDA AND KEYS

CITY           SKY/WX    TMP DP  RH WIND       PRES   REMARKS
PUNTA GORDA    CLOUDY    78  73  84 SE5       30.15R
FT MYERS       MOCLDY    76  72  87 E3        30.13R
SOUTHWEST INTL MOCLDY    77  72  84 NE3       30.14R
NAPLES         MOCLDY    79  74  84 NE3       30.13R
MARCO ISLAND   PTCLDY    77  72  83 E6        30.13R
MARATHON       PTCLDY    83  78  85 E8        30.11R
KEY WEST NAS   CLOUDY    83  76  79 E15       30.10R
KEY WEST INTL  CLOUDY    84  76  76 E14       30.10R

STATION/POSITION SKY/WX   TEMP    WIND        PRES    WAVE   SWELL
                          AIR SEA DIR/SP/G            HT/PER HT/PER
                          (F)     (DEG/KT/KT) (MB)    (FT/S) (FT/S)
VENICE                     80 87  100/  4/  5 1020.2R
NAPLES                     80      60/  2/  4 1020.6R
DRY TORTUGAS               84     100/ 19/ 22 1018.8R
NW FL BAY                  81      70/ 10/ 11 1019.3R
SAND KEY                   84     100/ 18/ 20 1018.9R
SOMBRERO KEY               84      90/ 17/ 18 1020.0R
LONG KEY                   83 83  100/ 11/ 12 1020.1R
MOLASSES REEF              83 85   90/ 11/ 12 1019.9R

$$
FLZ067-068-071>074-168-172>174-150300-
SOUTHEAST FLORIDA

CITY           SKY/WX    TMP DP  RH WIND       PRES   REMARKS
W PALM BEACH   PTCLDY    76  70  82 CALM      30.14R
FT LAUDER-EXEC CLEAR     79  73  82 N6        30.14R
FT LAUDERDALE  MOCLDY    84  75  74 E7        30.13R
POMPANO BEACH  PTCLDY    81  71  71 N5        30.14R
PEMBROKE PINES CLEAR     81  75  82 E5        30.15R
OPA LOCKA      CLEAR     82  74  76 E6        30.14R
MIAMI          MOCLDY    83  74  74 E7        30.14R
WEST KENDALL   CLEAR     81  75  82 E6        30.13R
HOMESTEAD      CLEAR     82  76  83 E5        30.13R

STATION/POSITION SKY/WX   TEMP    WIND        PRES    WAVE   SWELL
                          AIR SEA DIR/SP/G            HT/PER HT/PER
                          (F)     (DEG/KT/KT) (MB)    (FT/S) (FT/S)
PORT EVERGLADES            83      70/  6/  9 1020.4
VIRGINIA KEY               84 85   90/  9/ 10   N/A
LAKE WORTH                 77 85  340/  1/  3 1020.5R
FOWEY ROCKS                84 85   80/ 10/ 11 1020.5R
SETTLEMENT POINT           81     140/  4/  4 1021.4R

$$




USA.gov is the U.S. government's official web portal to all federal, state and local government web resources and services.